AMX1005 MMGL-MMMY

Flight info

Callsign AMX1005
Flight time 1h 7m
Altitude 35000
Route MMGL/29R GOYA1B GOYAS J42 ZCL UT5 SLW1B MMMY/TASNA R12
Aircraft B738/M-V/N

Departure

Time 2026-04-22 01:26
Airport Guadalajara International Airport (MMGL)

Arrival

Time 2026-04-22 02:34
Airport Monterrey International Airport (MMMY)
Time Latitude Longitude Altitude Speed Heading
2026-04-22 01:08 20.52346 -103.29826 5024 ft 0 kts 18°
2026-04-22 01:16 20.52338 -103.29828 5027 ft 2 kts 18°
2026-04-22 01:16 20.52324 -103.29833 5026 ft 2 kts 19°
2026-04-22 01:16 20.52309 -103.29838 5026 ft 2 kts 19°
2026-04-22 01:16 20.52296 -103.29844 5025 ft 2 kts 46°
2026-04-22 01:17 20.52289 -103.29858 5025 ft 2 kts 90°
2026-04-22 01:17 20.52291 -103.29868 5025 ft 1 kts 116°
2026-04-22 01:17 20.52294 -103.29874 5025 ft 0 kts 117°
2026-04-22 01:19 20.52284 -103.29853 5025 ft 11 kts 117°
2026-04-22 01:19 20.52231 -103.29754 5025 ft 15 kts 119°
2026-04-22 01:19 20.52194 -103.29652 5026 ft 14 kts 108°
2026-04-22 01:20 20.52161 -103.29549 5024 ft 14 kts 110°
2026-04-22 01:20 20.52108 -103.29467 5024 ft 12 kts 172°
2026-04-22 01:20 20.52033 -103.29485 5025 ft 9 kts 204°
2026-04-22 01:20 20.52011 -103.29495 5026 ft 0 kts 205°
2026-04-22 01:22 20.52009 -103.29496 5026 ft 2 kts 204°
2026-04-22 01:23 20.51946 -103.29527 5026 ft 13 kts 203°
2026-04-22 01:23 20.51883 -103.29555 5026 ft 1 kts 203°
2026-04-22 01:23 20.51866 -103.29562 5026 ft 9 kts 201°
2026-04-22 01:24 20.51814 -103.29596 5026 ft 5 kts 266°
2026-04-22 01:24 20.51820 -103.29615 5026 ft 0 kts 293°
2026-04-22 01:25 20.51855 -103.29704 5027 ft 42 kts 291°
2026-04-22 01:25 20.52056 -103.30204 5029 ft 103 kts 292°
2026-04-22 01:25 20.52435 -103.31094 5034 ft 156 kts 291°
2026-04-22 01:26 20.52896 -103.32243 5260 ft 176 kts 292°
2026-04-22 01:26 20.53387 -103.33463 5739 ft 180 kts 291°
2026-04-22 01:26 20.53887 -103.34683 6188 ft 184 kts 290°
2026-04-22 01:26 20.54400 -103.35996 6500 ft 197 kts 289°
2026-04-22 01:27 20.54928 -103.37359 6788 ft 205 kts 291°
2026-04-22 01:27 20.55510 -103.38832 6915 ft 221 kts 291°
2026-04-22 01:27 20.56142 -103.40408 7138 ft 239 kts 292°
2026-04-22 01:27 20.56808 -103.42065 7597 ft 251 kts 292°
2026-04-22 01:28 20.57507 -103.43829 8071 ft 264 kts 292°
2026-04-22 01:28 20.58235 -103.45664 8591 ft 275 kts 293°
2026-04-22 01:28 20.58995 -103.47573 9220 ft 282 kts 293°
2026-04-22 01:28 20.59761 -103.49495 9905 ft 286 kts 294°
2026-04-22 01:29 20.60541 -103.51453 10508 ft 293 kts 294°
2026-04-22 01:29 20.61369 -103.53483 10921 ft 308 kts 297°
2026-04-22 01:29 20.62725 -103.55334 11274 ft 324 kts 322°
2026-04-22 01:29 20.64779 -103.56384 11628 ft 338 kts 348°
2026-04-22 01:30 20.67175 -103.56361 11947 ft 354 kts 14°
2026-04-22 01:30 20.69415 -103.55175 12348 ft 366 kts 40°
2026-04-22 01:30 20.71035 -103.53103 12958 ft 371 kts 59°
2026-04-22 01:30 20.72274 -103.50677 13651 ft 374 kts 62°
2026-04-22 01:31 20.73538 -103.48216 14311 ft 379 kts 59°
2026-04-22 01:31 20.74955 -103.45815 14924 ft 384 kts 56°
2026-04-22 01:31 20.76394 -103.43394 15550 ft 390 kts 59°
2026-04-22 01:31 20.77616 -103.40785 16178 ft 395 kts 68°
2026-04-22 01:32 20.78405 -103.37994 16756 ft 401 kts 77°
2026-04-22 01:32 20.78830 -103.35030 17366 ft 406 kts 84°
2026-04-22 01:32 20.78970 -103.32008 17917 ft 411 kts 89°
2026-04-22 01:32 20.79037 -103.28954 18523 ft 414 kts 85°
2026-04-22 01:33 20.79684 -103.25962 18980 ft 419 kts 65°
2026-04-22 01:33 20.81333 -103.23386 19546 ft 419 kts 43°
2026-04-22 01:33 20.83580 -103.21468 20149 ft 419 kts 31°
2026-04-22 01:33 20.86165 -103.19986 20692 ft 420 kts 21°
2026-04-22 01:34 20.88919 -103.19014 21193 ft 422 kts 11°
2026-04-22 01:34 20.91854 -103.18543 21744 ft 423 kts
2026-04-22 01:34 20.94797 -103.18385 22275 ft 426 kts 360°
2026-04-22 01:34 20.97770 -103.18237 22835 ft 429 kts
2026-04-22 01:35 21.00785 -103.17960 23314 ft 435 kts
2026-04-22 01:35 21.03791 -103.17534 23366 ft 438 kts
2026-04-22 01:35 21.06777 -103.16972 23365 ft 434 kts
2026-04-22 01:35 21.09741 -103.16316 23359 ft 434 kts
2026-04-22 01:36 21.12697 -103.15601 23356 ft 435 kts 10°
2026-04-22 01:36 21.15668 -103.14848 23354 ft 435 kts 11°
2026-04-22 01:36 21.18646 -103.14078 23384 ft 441 kts 11°
2026-04-22 01:36 21.21639 -103.13297 24035 ft 441 kts 11°
2026-04-22 01:37 21.24603 -103.12521 24638 ft 443 kts 10°
2026-04-22 01:37 21.27636 -103.11729 25127 ft 447 kts 10°
2026-04-22 01:37 21.30638 -103.10946 25650 ft 449 kts 10°
2026-04-22 01:37 21.33691 -103.10150 26161 ft 452 kts
2026-04-22 01:38 21.36796 -103.09341 26653 ft 455 kts
2026-04-22 01:38 21.39870 -103.08540 27125 ft 458 kts
2026-04-22 01:38 21.42988 -103.07728 27559 ft 462 kts
2026-04-22 01:38 21.46121 -103.06911 28025 ft 464 kts
2026-04-22 01:39 21.49264 -103.06090 28512 ft 466 kts
2026-04-22 01:39 21.52441 -103.05260 28899 ft 470 kts
2026-04-22 01:39 21.55640 -103.04425 29350 ft 472 kts
2026-04-22 01:39 21.58843 -103.03589 29658 ft 477 kts
2026-04-22 01:40 21.62083 -103.02743 30020 ft 480 kts
2026-04-22 01:40 21.65341 -103.01892 30549 ft 479 kts
2026-04-22 01:40 21.68592 -103.01041 31105 ft 478 kts
2026-04-22 01:40 21.71800 -103.00198 31657 ft 476 kts
2026-04-22 01:41 21.75071 -102.99341 32105 ft 476 kts
2026-04-22 01:41 21.78267 -102.98504 32520 ft 476 kts
2026-04-22 01:41 21.81513 -102.97652 32953 ft 476 kts
2026-04-22 01:41 21.84744 -102.96805 33440 ft 474 kts
2026-04-22 01:42 21.87945 -102.95963 33863 ft 473 kts
2026-04-22 01:42 21.91164 -102.95119 34002 ft 478 kts
2026-04-22 01:42 21.94417 -102.94268 34235 ft 480 kts
2026-04-22 01:42 21.97671 -102.93413 34689 ft 477 kts
2026-04-22 01:43 22.00870 -102.92575 35107 ft 476 kts
2026-04-22 01:43 22.04137 -102.91720 35425 ft 475 kts
2026-04-22 01:43 22.10621 -102.90029 35449 ft 483 kts
2026-04-22 01:44 22.17179 -102.88304 35449 ft 479 kts
2026-04-22 01:44 22.23655 -102.86593 35463 ft 481 kts
2026-04-22 01:45 22.30161 -102.84874 35468 ft 478 kts
2026-04-22 01:45 22.36674 -102.83154 35466 ft 481 kts
2026-04-22 01:46 22.43197 -102.81428 35466 ft 481 kts
2026-04-22 01:46 22.49694 -102.79710 35462 ft 480 kts
2026-04-22 01:47 22.56220 -102.77982 35464 ft 481 kts
2026-04-22 01:47 22.62736 -102.76254 35473 ft 480 kts
2026-04-22 01:48 22.69224 -102.74533 35481 ft 481 kts
2026-04-22 01:48 22.75718 -102.72807 35483 ft 479 kts
2026-04-22 01:49 22.82232 -102.71075 35483 ft 480 kts
2026-04-22 01:49 22.88646 -102.68959 35479 ft 490 kts 16°
2026-04-22 01:50 22.94845 -102.65664 35479 ft 496 kts 24°
2026-04-22 01:50 23.00770 -102.61848 35468 ft 497 kts 26°
2026-04-22 01:51 23.06660 -102.57912 35459 ft 498 kts 26°
2026-04-22 01:51 23.12600 -102.53959 35457 ft 497 kts 26°
2026-04-22 01:52 23.18486 -102.50081 35448 ft 497 kts 25°
2026-04-22 01:52 23.24445 -102.46182 35435 ft 498 kts 25°
2026-04-22 01:53 23.30379 -102.42308 35433 ft 495 kts 25°
2026-04-22 01:53 23.36293 -102.38450 35418 ft 497 kts 25°
2026-04-22 01:54 23.42244 -102.34564 35414 ft 496 kts 26°
2026-04-22 01:54 23.48152 -102.30704 35407 ft 498 kts 26°
2026-04-22 01:55 23.54103 -102.26812 35408 ft 496 kts 26°
2026-04-22 01:55 23.60046 -102.22917 35408 ft 497 kts 26°
2026-04-22 01:56 23.65969 -102.19031 35398 ft 499 kts 26°
2026-04-22 01:56 23.71889 -102.15143 35397 ft 496 kts 26°
2026-04-22 01:57 23.77828 -102.11238 35394 ft 497 kts 26°
2026-04-22 01:57 23.83750 -102.07339 35385 ft 497 kts 26°
2026-04-22 01:58 23.89665 -102.03442 35376 ft 495 kts 26°
2026-04-22 01:58 23.95584 -101.99539 35368 ft 495 kts 25°
2026-04-22 01:59 24.01526 -101.95618 35364 ft 497 kts 26°
2026-04-22 01:59 24.07429 -101.91716 35361 ft 496 kts 26°
2026-04-22 02:00 24.13350 -101.87797 35370 ft 495 kts 25°
2026-04-22 02:00 24.19243 -101.83891 35358 ft 495 kts 25°
2026-04-22 02:01 24.25176 -101.79957 35358 ft 495 kts 25°
2026-04-22 02:01 24.31064 -101.76050 35348 ft 495 kts 25°
2026-04-22 02:02 24.36973 -101.72122 35346 ft 496 kts 25°
2026-04-22 02:02 24.42855 -101.68211 35359 ft 496 kts 25°
2026-04-22 02:03 24.48781 -101.64266 35389 ft 496 kts 25°
2026-04-22 02:03 24.54666 -101.60342 35395 ft 495 kts 25°
2026-04-22 02:04 24.63499 -101.54444 35387 ft 496 kts 25°
2026-04-22 02:05 24.69397 -101.50503 35367 ft 496 kts 25°
2026-04-22 02:05 24.75313 -101.46544 35351 ft 498 kts 25°
2026-04-22 02:06 24.81237 -101.42572 35350 ft 496 kts 25°
2026-04-22 02:06 24.87158 -101.38599 35360 ft 497 kts 25°
2026-04-22 02:07 24.93095 -101.34612 35381 ft 498 kts 25°
2026-04-22 02:07 24.98982 -101.30656 35411 ft 499 kts 25°
2026-04-22 02:08 25.04946 -101.26642 35415 ft 499 kts 25°
2026-04-22 02:08 25.10832 -101.22673 35396 ft 499 kts 25°
2026-04-22 02:09 25.16767 -101.18665 35378 ft 498 kts 25°
2026-04-22 02:09 25.22676 -101.14672 35362 ft 498 kts 25°
2026-04-22 02:10 25.28578 -101.10680 35349 ft 498 kts 25°
2026-04-22 02:10 25.34505 -101.06669 35321 ft 499 kts 25°
2026-04-22 02:11 25.40444 -101.02643 34835 ft 497 kts 25°
2026-04-22 02:11 25.43306 -101.00521 34213 ft 500 kts 31°
2026-04-22 02:11 25.46010 -100.98032 33416 ft 509 kts 38°
2026-04-22 02:11 25.48397 -100.95127 32534 ft 519 kts 47°
2026-04-22 02:12 25.50437 -100.91843 31587 ft 528 kts 56°
2026-04-22 02:12 25.52190 -100.88245 30578 ft 535 kts 62°
2026-04-22 02:12 25.53570 -100.84390 29480 ft 536 kts 71°
2026-04-22 02:12 25.54375 -100.80453 28510 ft 529 kts 81°
2026-04-22 02:13 25.54761 -100.76430 27420 ft 524 kts 85°
2026-04-22 02:13 25.54944 -100.72438 26284 ft 520 kts 88°
2026-04-22 02:13 25.55014 -100.68499 25179 ft 514 kts 89°
2026-04-22 02:13 25.55021 -100.64596 24551 ft 497 kts 89°
2026-04-22 02:14 25.55006 -100.60864 23927 ft 482 kts 90°
2026-04-22 02:14 25.54986 -100.57204 23294 ft 468 kts 89°
2026-04-22 02:14 25.54971 -100.53642 22661 ft 457 kts 89°
2026-04-22 02:14 25.54981 -100.50205 22079 ft 444 kts 85°
2026-04-22 02:15 25.55500 -100.46906 21812 ft 425 kts 68°
2026-04-22 02:15 25.56809 -100.44007 21576 ft 418 kts 52°
2026-04-22 02:15 25.58509 -100.41419 21333 ft 418 kts 47°
2026-04-22 02:15 25.60329 -100.38900 21072 ft 413 kts 46°
2026-04-22 02:16 25.62128 -100.36468 20888 ft 415 kts 46°
2026-04-22 02:16 25.63968 -100.33964 20508 ft 414 kts 47°
2026-04-22 02:16 25.65751 -100.31489 19984 ft 413 kts 48°
2026-04-22 02:16 25.67516 -100.28994 19376 ft 414 kts 49°
2026-04-22 02:17 25.69278 -100.26466 18757 ft 414 kts 49°
2026-04-22 02:17 25.71029 -100.23929 18135 ft 414 kts 49°
2026-04-22 02:17 25.72780 -100.21375 17463 ft 416 kts 50°
2026-04-22 02:17 25.74519 -100.18827 16812 ft 416 kts 50°
2026-04-22 02:18 25.76262 -100.16269 16164 ft 416 kts 50°
2026-04-22 02:18 25.78003 -100.13707 15585 ft 411 kts 50°
2026-04-22 02:18 25.79690 -100.11220 15002 ft 399 kts 51°
2026-04-22 02:18 25.81339 -100.08785 14414 ft 387 kts 51°
2026-04-22 02:19 25.82898 -100.06479 14420 ft 359 kts 50°
2026-04-22 02:19 25.84398 -100.04340 14487 ft 345 kts 47°
2026-04-22 02:19 25.86025 -100.02466 14467 ft 333 kts 37°
2026-04-22 02:19 25.87855 -100.00916 14181 ft 327 kts 30°
2026-04-22 02:20 25.89858 -99.99788 13845 ft 313 kts
2026-04-22 02:20 25.91915 -99.99723 13641 ft 290 kts 342°
2026-04-22 02:20 25.93723 -100.00565 13380 ft 272 kts 322°
2026-04-22 02:20 25.95128 -100.01891 13106 ft 259 kts 307°
2026-04-22 02:21 25.96157 -100.03486 12812 ft 249 kts 293°
2026-04-22 02:21 25.96808 -100.05207 12562 ft 239 kts 290°
2026-04-22 02:21 25.97497 -100.06831 12393 ft 228 kts 296°
2026-04-22 02:21 25.98302 -100.08312 12227 ft 216 kts 300°
2026-04-22 02:22 25.99098 -100.09663 12096 ft 204 kts 300°
2026-04-22 02:22 25.99856 -100.10958 11928 ft 193 kts 300°
2026-04-22 02:22 26.00553 -100.12171 11768 ft 181 kts 299°
2026-04-22 02:22 26.01219 -100.13345 11467 ft 178 kts 299°
2026-04-22 02:23 26.01873 -100.14504 11124 ft 178 kts 300°
2026-04-22 02:23 26.02535 -100.15672 10753 ft 179 kts 301°
2026-04-22 02:23 26.03200 -100.16843 10401 ft 178 kts 301°
2026-04-22 02:23 26.03857 -100.17997 10047 ft 179 kts 301°
2026-04-22 02:24 26.04465 -100.19165 9745 ft 171 kts 292°
2026-04-22 02:24 26.04664 -100.20451 9244 ft 174 kts 265°
2026-04-22 02:24 26.04337 -100.21724 8893 ft 167 kts 247°
2026-04-22 02:24 26.03720 -100.22804 8403 ft 170 kts 226°
2026-04-22 02:25 26.02738 -100.23550 7873 ft 173 kts 208°
2026-04-22 02:25 26.01705 -100.24191 7587 ft 169 kts 210°
2026-04-22 02:25 26.00683 -100.24875 7420 ft 175 kts 210°
2026-04-22 02:25 25.99632 -100.25587 7220 ft 173 kts 209°
2026-04-22 02:26 25.98610 -100.26273 7037 ft 170 kts 209°
2026-04-22 02:26 25.97608 -100.26947 6902 ft 166 kts 209°
2026-04-22 02:26 25.96628 -100.27608 6473 ft 167 kts 207°
2026-04-22 02:26 25.95618 -100.28286 5932 ft 171 kts 207°
2026-04-22 02:27 25.94592 -100.28976 5409 ft 174 kts 206°
2026-04-22 02:27 25.93557 -100.29674 4963 ft 172 kts 206°
2026-04-22 02:27 25.92538 -100.30360 4864 ft 175 kts 207°
2026-04-22 02:27 25.91462 -100.31049 4824 ft 176 kts 201°
2026-04-22 02:28 25.90339 -100.31302 4771 ft 160 kts 167°
2026-04-22 02:28 25.89300 -100.30881 4757 ft 157 kts 147°
2026-04-22 02:28 25.88459 -100.30124 4559 ft 154 kts 125°
2026-04-22 02:28 25.87914 -100.29116 4402 ft 152 kts 117°
2026-04-22 02:29 25.87385 -100.28092 4243 ft 153 kts 120°
2026-04-22 02:29 25.86832 -100.27097 4079 ft 151 kts 120°
2026-04-22 02:29 25.86285 -100.26108 3933 ft 151 kts 119°
2026-04-22 02:29 25.85743 -100.25121 3781 ft 149 kts 119°
2026-04-22 02:30 25.85201 -100.24131 3663 ft 147 kts 119°
2026-04-22 02:30 25.84664 -100.23148 3527 ft 149 kts 120°
2026-04-22 02:30 25.84133 -100.22179 3386 ft 145 kts 119°
2026-04-22 02:30 25.83620 -100.21240 3274 ft 139 kts 119°
2026-04-22 02:31 25.83095 -100.20278 3154 ft 154 kts 119°
2026-04-22 02:31 25.82510 -100.19209 2908 ft 167 kts 120°
2026-04-22 02:31 25.81910 -100.18122 2636 ft 163 kts 120°
2026-04-22 02:31 25.81327 -100.17065 2409 ft 158 kts 120°
2026-04-22 02:32 25.80764 -100.16039 2195 ft 153 kts 121°
2026-04-22 02:32 25.80213 -100.15035 1985 ft 149 kts 121°
2026-04-22 02:32 25.79677 -100.14059 1781 ft 146 kts 121°
2026-04-22 02:32 25.79155 -100.13107 1583 ft 146 kts 120°
2026-04-22 02:33 25.78638 -100.12127 1379 ft 147 kts 120°
2026-04-22 02:33 25.78123 -100.11176 1276 ft 135 kts 121°
2026-04-22 02:33 25.77681 -100.10367 1260 ft 108 kts 120°
2026-04-22 02:33 25.77346 -100.09759 1250 ft 78 kts 122°
2026-04-22 02:34 25.77103 -100.09323 1243 ft 45 kts 121°
2026-04-22 02:34 25.76884 -100.09273 1242 ft 30 kts 245°
2026-04-22 02:34 25.76943 -100.09444 1245 ft 22 kts 300°
2026-04-22 02:34 25.77019 -100.09583 1248 ft 19 kts 301°
2026-04-22 02:35 25.77087 -100.09708 1250 ft 17 kts 301°
2026-04-22 02:35 25.77149 -100.09821 1250 ft 16 kts 301°
2026-04-22 02:35 25.77208 -100.09932 1252 ft 18 kts 300°
2026-04-22 02:35 25.77278 -100.10058 1254 ft 24 kts 303°
2026-04-22 02:36 25.77370 -100.10220 1257 ft 24 kts 302°
2026-04-22 02:36 25.77455 -100.10371 1260 ft 21 kts 302°
2026-04-22 02:36 25.77523 -100.10495 1263 ft 10 kts 300°
2026-04-22 02:36 25.77533 -100.10514 1263 ft 0 kts 301°
2026-04-22 02:38 25.77561 -100.10566 1264 ft 18 kts 301°
2026-04-22 02:38 25.77632 -100.10699 1267 ft 19 kts 300°
2026-04-22 02:38 25.77698 -100.10819 1269 ft 16 kts 303°
2026-04-22 02:39 25.77757 -100.10920 1271 ft 14 kts 302°
2026-04-22 02:39 25.77805 -100.11008 1273 ft 12 kts 302°
2026-04-22 02:39 25.77821 -100.11035 1273 ft 0 kts 301°
2026-04-22 02:42 25.77821 -100.11037 1273 ft 1 kts 301°
2026-04-22 02:42 25.77844 -100.11076 1274 ft 6 kts 302°
2026-04-22 02:42 25.77847 -100.11123 1275 ft 7 kts 233°
2026-04-22 02:43 25.77795 -100.11163 1276 ft 10 kts 213°
2026-04-22 02:43 25.77730 -100.11217 1278 ft 10 kts 225°
2026-04-22 02:43 25.77714 -100.11282 1279 ft 7 kts 290°
2026-04-22 02:43 25.77744 -100.11289 1280 ft 2 kts 31°
2026-04-22 02:44 25.77747 -100.11287 1280 ft 0 kts 31°
2026-04-22 02:44 25.77746 -100.11288 1280 ft 0 kts 31°